FW8906 Weather Reports


time (UTC)temp
C
wind
direction
speed
KPH
gust
KPH
rain 1hr
cm
rain 24hr
cm
rain mn
cm
humidity
%
barometer
mb
20260507013036 13 280 8.0 12.9 0.00 0.00 0.00 81 1021.0
20260507012541 14 260 8.0 12.9 0.00 0.00 0.00 80 1021.0
20260507012032 14 293 8.0 12.9 0.00 0.00 0.00 79 1021.0
20260507011531 15 221 6.4 12.9 0.00 0.00 0.00 78 1021.0
20260507011055 15 252 4.8 9.7 0.00 0.00 0.00 78 1020.9
20260507010533 15 277 6.4 9.7 0.00 0.00 0.00 77 1021.0
20260507010043 15 210 4.8 9.7 0.00 0.00 0.00 77 1021.0
20260507005529 15 225 6.4 9.7 0.00 0.00 0.00 77 1021.0
20260507005050 15 309 4.8 9.7 0.00 0.00 0.00 79 1021.0
20260507004531 15 292 8.0 11.3 0.00 0.00 0.00 79 1021.0
20260507004054 15 214 6.4 11.3 0.00 0.00 0.00 77 1021.0
20260507003527 15 204 6.4 9.7 0.00 0.00 0.00 80 1021.1
20260507003031 15 264 4.8 9.7 0.00 0.00 0.00 80 1021.1
20260507002556 14 208 3.2 6.4 0.00 0.00 0.00 80 1021.1
20260507002040 14 239 1.6 9.7 0.00 0.00 0.00 79 1021.1
20260507001537 15 296 3.2 8.0 0.00 0.00 0.00 78 1021.0
20260507001031 15 200 4.8 9.7 0.00 0.00 0.00 79 1020.9
20260507000533 15 269 3.2 9.7 0.00 0.00 0.00 80 1020.9
20260507000118 14 303 4.8 12.9 0.00 0.00 0.00 81 1021.0
20260506235526 14 288 8.0 12.9 0.00 0.00 0.00 80 1021.1
20260506235031 14 301 4.8 9.7 0.00 0.00 0.00 80 1021.0
20260506234537 14 276 8.0 12.9 0.00 0.00 0.00 78 1021.1
20260506234037 15 219 9.7 12.9 0.00 0.00 0.00 78 1021.1
20260506233533 15 222 8.0 17.7 0.00 0.00 0.00 80 1021.1
20260506233038 15 253 9.7 17.7 0.00 0.00 0.00 81 1021.2
20260506232541 15 281 9.7 14.5 0.00 0.00 0.00 80 1021.1
20260506232042 14 266 8.0 12.9 0.00 0.00 0.00 81 1021.1
20260506231543 14 216 8.0 12.9 0.00 0.00 0.00 81 1021.1
20260506231040 14 282 8.0 16.1 0.00 0.00 0.00 81 1021.1
20260506230539 15 289 11.3 16.1 0.00 0.00 0.00 81 1021.1
20260506230049 15 296 6.4 11.3 0.00 0.00 0.00 81 1021.2
20260506225529 15 238 6.4 9.7 0.00 0.00 0.00 78 1021.2
20260506225034 15 204 0.0 12.9 0.00 0.00 0.00 79 1021.2
20260506224536 15 281 3.2 12.9 0.00 0.00 0.00 78 1021.2
20260506224041 15 239 3.2 9.7 0.00 0.00 0.00 79 1021.2
20260506223532 15 270 1.6 8.0 0.00 0.00 0.00 81 1021.2
20260506223053 14 238 3.2 9.7 0.00 0.00 0.00 80 1021.1
20260506222526 14 221 4.8 12.9 0.00 0.00 0.00 81 1021.2
20260506222051 14 234 4.8 12.9 0.00 0.00 0.00 81 1021.2
20260506221541 15 269 4.8 9.7 0.00 0.00 0.00 81 1021.2
20260506221045 14 167 3.2 11.3 0.00 0.00 0.00 81 1021.2
20260506220552 15 290 4.8 11.3 0.00 0.00 0.00 80 1021.2
20260506220105 15 139 1.6 9.7 0.00 0.00 0.00 81 1021.2
20260506215539 14 251 1.6 9.7 0.00 0.00 0.00 83 1021.2
20260506215052 14 252 4.8 11.3 0.00 0.00 0.00 83 1021.2
20260506214545 14 247 6.4 11.3 0.00 0.00 0.00 82 1021.2
20260506214046 14 235 6.4 11.3 0.00 0.00 0.00 80 1021.3
20260506213541 14 283 3.2 6.4 0.00 0.00 0.00 80 1021.3
20260506213040 14 67 4.8 11.3 0.00 0.00 0.00 80 1021.3
20260506212524 14 278 1.6 17.7 0.00 0.00 0.00 81 1021.3
20260506212049 14 300 1.6 17.7 0.00 0.00 0.00 81 1021.3
20260506211544 14 259 6.4 11.3 0.00 0.00 0.00 84 1021.2
20260506211039 13 262 4.8 9.7 0.00 0.00 0.00 85 1021.1
20260506210548 13 248 4.8 9.7 0.00 0.00 0.00 84 1021.2
20260506205537 13 278 4.8 9.7 0.00 0.00 0.00 85 1021.3
20260506205036 13 264 4.8 12.9 0.00 0.00 0.00 84 1021.3
20260506204538 13 248 4.8 12.9 0.00 0.00 0.00 84 1021.2
20260506204041 13 283 4.8 6.4 0.00 0.00 0.00 83 1021.2
20260506203543 13 140 0.0 11.3 0.00 0.00 0.00 83 1021.3
20260506203036 13 282 4.8 11.3 0.00 0.00 0.00 83 1021.3
20260506202539 13 271 0.0 9.7 0.00 0.00 0.00 84 1021.2
20260506202059 13 260 3.2 9.7 0.00 0.00 0.00 84 1021.2
20260506201618 13 240 1.6 9.7 0.00 0.00 0.00 84 1021.1
20260506201029 13 238 1.6 11.3 0.00 0.00 0.00 86 1021.2
20260506200525 13 7 3.2 11.3 0.00 0.00 0.00 86 1021.1
20260506200101 13 248 6.4 11.3 0.00 0.00 0.00 87 1021.2
20260506195542 13 94 1.6 6.4 0.00 0.00 0.00 91 1021.1
20260506195026 12 295 1.6 9.7 0.00 0.00 0.00 91 1021.0
20260506194545 12 304 3.2 9.7 0.00 0.00 0.00 91 1021.0
20260506194036 12 233 4.8 9.7 0.00 0.00 0.00 91 1021.1
20260506193611 12 293 6.4 9.7 0.00 0.00 0.00 91 1021.0
20260506193111 12 236 4.8 9.7 0.00 0.00 0.00 91 1021.0
20260506192613 11 292 4.8 11.3 0.00 0.00 0.00 90 1021.1
20260506192050 12 268 3.2 9.7 0.00 0.00 0.00 89 1021.0
20260506191541 12 344 3.2 9.7 0.00 0.00 0.00 87 1020.9
20260506191036 13 293 3.2 8.0 0.00 0.00 0.00 85 1020.9
20260506190545 13 243 4.8 8.0 0.00 0.00 0.00 84 1020.7
20260506190051 13 53 3.2 9.7 0.00 0.00 0.00 85 1020.8
20260506185539 13 120 3.2 9.7 0.00 0.00 0.00 85 1020.8
20260506185044 13 236 3.2 11.3 0.00 0.00 0.00 85 1020.8
20260506184539 13 254 4.8 11.3 0.00 0.00 0.00 85 1020.8
20260506184039 13 70 3.2 8.0 0.00 0.00 0.00 85 1020.7
20260506183545 13 58 3.2 11.3 0.00 0.00 0.00 86 1020.7
20260506183110 13 222 3.2 11.3 0.00 0.00 0.00 86 1020.7
20260506182541 13 236 1.6 9.7 0.00 0.00 0.00 86 1020.8
20260506182046 13 281 3.2 9.7 0.00 0.00 0.00 87 1020.8
20260506181549 13 219 6.4 14.5 0.00 0.00 0.00 86 1020.7
20260506181027 13 273 4.8 12.9 0.00 0.00 0.00 86 1020.7
20260506180526 13 181 4.8 9.7 0.00 0.00 0.00 86 1020.7
20260506180100 13 255 4.8 11.3 0.00 0.00 0.00 85 1020.6
20260506175544 13 357 3.2 11.3 0.00 0.00 0.00 86 1020.6
20260506175044 13 273 4.8 17.7 0.00 0.00 0.00 86 1020.5
20260506174550 13 249 4.8 17.7 0.00 0.00 0.00 85 1020.5
20260506174040 13 45 3.2 12.9 0.00 0.00 0.00 86 1020.5
20260506173525 13 294 4.8 17.7 0.00 0.00 0.00 87 1020.4
20260506173032 13 278 4.8 17.7 0.00 0.00 0.00 86 1020.4
20260506172526 13 224 6.4 12.9 0.00 0.00 0.00 85 1020.4
20260506172031 13 204 3.2 9.7 0.00 0.00 0.00 85 1020.4
20260506171534 13 75 4.8 17.7 0.00 0.00 0.00 85 1020.3
20260506171038 13 232 3.2 17.7 0.00 0.00 0.00 85 1020.0
20260506170532 13 29 4.8 9.7 0.00 0.00 0.00 86 1020.1
20260506170043 13 262 3.2 9.7 0.00 0.00 0.00 86 1020.1
20260506165553 13 67 3.2 9.7 0.00 0.00 0.00 87 1020.2
20260506165046 13 10 4.8 9.7 0.00 0.00 0.00 87 1020.3
20260506164537 13 283 3.2 11.3 0.00 0.00 0.00 87 1020.3
20260506164039 13 120 1.6 12.9 0.00 0.00 0.00 87 1020.3
20260506163543 13 108 1.6 12.9 0.00 0.00 0.00 88 1020.3
20260506163041 13 121 3.2 9.7 0.00 0.00 0.00 88 1020.3
20260506162612 12 48 1.6 4.8 0.00 0.00 0.00 89 1020.4
20260506162108 12 277 1.6 4.8 0.00 0.00 0.00 90 1020.4
20260506161531 12 277 0.0 9.7 0.00 0.00 0.00 90 1020.4
20260506161043 12 168 3.2 9.7 0.00 0.00 0.00 90 1020.6
20260506160536 12 292 4.8 9.7 0.00 0.00 0.00 90 1020.7
20260506160047 12 266 1.6 6.4 0.00 0.00 0.00 91 1020.5
20260506155545 12 91 3.2 8.0 0.00 0.00 0.00 91 1020.3
20260506155048 12 63 1.6 11.3 0.00 0.00 0.00 92 1020.3
20260506154531 12 191 1.6 8.0 0.00 0.00 0.00 93 1020.4
20260506154039 12 251 3.2 12.9 0.00 0.00 0.00 93 1020.4
20260506153604 12 165 4.8 12.9 0.00 0.00 0.00 94 1020.4
20260506153044 12 259 1.6 8.0 0.00 0.00 0.00 94 1020.2
20260506152528 12 249 3.2 9.7 0.00 0.00 0.00 95 1020.0
20260506152051 11 115 3.2 9.7 0.00 0.00 0.00 95 1019.9
20260506151542 11 104 1.6 4.8 0.00 0.00 0.00 96 1019.8
20260506151044 11 32 1.6 4.8 0.00 0.00 0.00 96 1019.7
20260506150539 11 179 1.6 9.7 0.00 0.00 0.00 96 1019.7
20260506150050 11 56 1.6 9.7 0.00 0.00 0.00 96 1019.7
20260506145540 11 101 3.2 6.4 0.00 0.00 0.00 96 1019.6
20260506145031 11 101 1.6 4.8 0.00 0.00 0.00 96 1019.8
20260506144537 11 286 0.0 4.8 0.00 0.00 0.00 95 1019.9
20260506144040 11 290 0.0 1.6 0.00 0.00 0.00 95 1019.9
20260506143541 11 276 0.0 4.8 0.00 0.00 0.00 95 1020.2
20260506143046 11 273 0.0 6.4 0.00 0.00 0.00 95 1020.2
20260506142545 11 290 4.8 6.4 0.00 0.00 0.00 95 1020.3
20260506142051 11 285 1.6 3.2 0.00 0.00 0.00 95 1020.0
20260506141524 11 304 0.0 1.6 0.00 0.00 0.00 95 1019.8
20260506141029 11 349 0.0 1.6 0.00 0.00 0.00 95 1019.5
20260506140530 11 349 0.0 1.6 0.00 0.00 0.00 95 1019.6
20260506140106 11 349 0.0 1.6 0.00 0.00 0.00 95 1019.7
20260506135536 11 349 0.0 1.6 0.00 0.00 0.00 95 1019.6
20260506135100 11 349 0.0 0.0 0.00 0.00 0.00 95 1019.5
20260506134526 11 349 0.0 0.0 0.00 0.00 0.00 95 1019.6
20260506134046 11 349 0.0 0.0 0.00 0.00 0.00 95 1019.5
20260506133538 10 349 0.0 1.6 0.00 0.00 0.00 95 1019.5
20260506133037 10 349 0.0 1.6 0.00 0.00 0.00 95 1019.5
20260506132539 10 349 0.0 1.6 0.00 0.00 0.00 95 1019.4
20260506132041 10 332 0.0 1.6 0.00 0.00 0.00 95 1019.4
20260506131538 10 323 0.0 1.6 0.00 0.00 0.00 95 1019.5
20260506131037 10 323 0.0 0.0 0.00 0.00 0.00 95 1019.4
20260506130532 10 323 0.0 1.6 0.00 0.00 0.00 95 1019.6
20260506130043 10 323 0.0 1.6 0.00 0.00 0.00 95 1019.6
20260506125538 10 323 0.0 1.6 0.00 0.00 0.00 95 1019.4
20260506125103 10 323 0.0 1.6 0.00 0.00 0.00 95 1019.5
20260506124536 10 323 0.0 1.6 0.00 0.00 0.00 95 1019.5
20260506124112 10 353 0.0 1.6 0.00 0.00 0.00 95 1019.4
20260506123526 10 44 0.0 0.0 0.00 0.00 0.00 95 1019.4
20260506123032 10 44 0.0 0.0 0.00 0.00 0.00 95 1019.3
20260506122540 10 44 0.0 1.6 0.00 0.00 0.00 95 1019.1
20260506122026 10 44 0.0 1.6 0.00 0.00 0.00 95 1019.2
20260506121531 10 44 0.0 1.6 0.00 0.00 0.00 95 1019.2
20260506121030 10 44 1.6 1.6 0.00 0.00 0.00 95 1019.2
20260506120533 10 272 0.0 0.0 0.00 0.00 0.00 96 1019.2
20260506120045 10 272 0.0 0.0 0.00 0.00 0.00 96 1019.1
20260506115550 10 272 0.0 0.0 0.00 0.00 0.00 96 1019.1
20260506115036 10 272 0.0 0.0 0.00 0.00 0.00 96 1019.2
20260506114602 10 272 0.0 0.0 0.00 0.00 0.00 96 1019.4
20260506114044 10 266 0.0 0.0 0.00 0.00 0.00 96 1019.3
20260506113542 10 266 0.0 0.0 0.00 0.00 0.00 96 1019.3
20260506113030 10 266 0.0 0.0 0.00 0.00 0.00 96 1019.2
20260506112538 10 266 0.0 0.0 0.00 0.00 0.00 96 1018.9
20260506112055 10 266 0.0 0.0 0.00 0.00 0.00 96 1019.0
20260506111529 10 266 0.0 0.0 0.00 0.00 0.00 96 1018.9
20260506111104 10 266 0.0 0.0 0.00 0.00 0.00 96 1018.8
20260506110608 10 266 0.0 0.0 0.00 0.00 0.00 96 1018.7
20260506110101 10 266 0.0 0.0 0.00 0.00 0.00 96 1018.8
20260506105612 10 266 0.0 0.0 0.00 0.00 0.00 96 1018.7
20260506105031 10 266 0.0 1.6 0.00 0.00 0.00 95 1018.6
20260506104550 10 266 0.0 1.6 0.00 0.00 0.00 95 1018.5
20260506104048 10 266 0.0 0.0 0.00 0.00 0.00 96 1018.4
20260506103543 10 266 0.0 0.0 0.00 0.00 0.00 96 1018.4
20260506103027 9 266 0.0 0.0 0.00 0.00 0.00 96 1018.4
20260506102534 9 266 0.0 0.0 0.00 0.00 0.00 96 1018.3
20260506102028 9 266 0.0 0.0 0.00 0.00 0.00 96 1018.3
20260506101553 9 266 0.0 0.0 0.00 0.00 0.00 95 1018.3
20260506101105 9 266 0.0 0.0 0.00 0.00 0.00 95 1018.4
20260506100537 9 266 0.0 0.0 0.00 0.00 0.00 95 1018.4
20260506100101 9 266 0.0 0.0 0.00 0.00 0.00 95 1018.3
20260506095552 9 266 0.0 0.0 0.00 0.00 0.00 94 1018.3
20260506095110 9 266 0.0 1.6 0.00 0.00 0.00 94 1018.3
20260506094536 9 266 0.0 1.6 0.00 0.00 0.00 94 1018.3
20260506094040 9 263 0.0 1.6 0.00 0.00 0.00 94 1018.3
20260506093540 9 263 0.0 1.6 0.00 0.00 0.00 94 1018.2
20260506093046 10 263 0.0 3.2 0.00 0.00 0.00 94 1018.2
20260506092535 10 269 1.6 4.8 0.00 0.00 0.00 94 1018.2
20260506092041 10 271 1.6 4.8 0.00 0.00 0.00 94 1018.1
20260506091543 10 258 3.2 4.8 0.00 0.00 0.00 94 1018.0
20260506091044 10 279 1.6 4.8 0.00 0.00 0.00 94 1018.0
20260506090550 10 262 3.2 4.8 0.00 0.00 0.00 93 1018.1
20260506090106 10 277 3.2 4.8 0.00 0.00 0.00 94 1018.1
20260506085542 10 266 3.2 6.4 0.00 0.00 0.00 94 1018.1
20260506085026 10 299 3.2 8.0 0.00 0.00 0.00 94 1018.1
20260506084535 10 285 4.8 8.0 0.00 0.00 0.00 94 1018.0
20260506084025 10 271 3.2 6.4 0.00 0.00 0.00 94 1018.0
20260506083531 10 281 3.2 6.4 0.00 0.00 0.00 94 1018.0
20260506083036 10 275 3.2 4.8 0.00 0.00 0.00 94 1017.9
20260506082534 10 276 1.6 4.8 0.00 0.00 0.00 94 1017.9
20260506082055 10 275 1.6 8.0 0.00 0.00 0.00 94 1017.9
20260506081535 10 236 1.6 6.4 0.00 0.00 0.00 94 1017.9
20260506081059 10 250 4.8 6.4 0.00 0.00 0.00 94 1017.8
20260506080531 10 245 3.2 6.4 0.00 0.00 0.00 94 1017.7
20260506080109 10 255 3.2 6.4 0.00 0.00 0.00 94 1017.6
20260506073050 10 269 1.6 3.2 0.00 0.00 0.00 93 1017.4
20260506072554 10 266 0.0 4.8 0.00 0.00 0.00 93 1017.2
20260506072055 10 272 1.6 4.8 0.00 0.00 0.00 93 1017.2
20260506071527 10 282 3.2 8.0 0.00 0.00 0.00 92 1017.2
20260506071033 10 274 4.8 8.0 0.00 0.00 0.00 93 1017.2
20260506070534 10 275 4.8 6.4 0.00 0.00 0.00 92 1017.2
20260506062031 11 278 6.4 11.3 0.00 0.00 0.00 92 1017.1
20260506061533 11 242 4.8 11.3 0.00 0.00 0.00 92 1017.3
20260506061039 11 274 6.4 9.7 0.00 0.00 0.00 92 1017.3
20260506060543 11 275 4.8 11.3 0.00 0.00 0.00 92 1017.3
20260506051033 11 310 3.2 9.7 0.00 0.00 0.00 89 1016.7
20260506050533 11 287 6.4 12.9 0.00 0.00 0.00 89 1016.8
20260506045029 11 266 3.2 8.0 0.00 0.00 0.00 88 1016.7
20260506044550 12 277 4.8 8.0 0.00 0.00 0.00 88 1016.6
20260506044035 12 292 3.2 11.3 0.00 0.00 0.00 88 1016.5
20260506043539 12 283 6.4 11.3 0.00 0.00 0.00 88 1016.3
20260506043107 12 283 6.4 9.7 0.00 0.00 0.00 88 1016.3
20260506042556 12 294 4.8 9.7 0.00 0.00 0.00 88 1016.2
20260506042035 12 271 4.8 8.0 0.00 0.00 0.00 87 1016.1
20260506041527 12 288 4.8 6.4 0.00 0.00 0.00 87 1016.1
20260506041100 12 291 3.2 4.8 0.00 0.00 0.00 87 1016.1
20260506040526 12 266 3.2 4.8 0.00 0.00 0.00 86 1015.9
20260506040045 12 248 0.0 3.2 0.00 0.00 0.00 86 1015.8
20260506035546 12 275 1.6 3.2 0.00 0.00 0.00 86 1015.8
20260506035049 12 240 0.0 4.8 0.00 0.00 0.00 85 1015.7
20260506034612 12 284 0.0 6.4 0.00 0.00 0.00 85 1015.6
20260506034028 13 283 3.2 6.4 0.00 0.00 0.00 84 1015.6
20260506033527 13 297 4.8 6.4 0.00 0.00 0.00 84 1015.6
20260506033029 13 274 1.6 6.4 0.00 0.00 0.00 83 1015.6
20260506032534 13 304 3.2 8.0 0.00 0.00 0.00 83 1015.7
20260506032040 13 245 4.8 8.0 0.00 0.00 0.00 82 1015.7
20260506031534 13 287 4.8 11.3 0.00 0.00 0.00 82 1015.6
20260506031059 13 253 4.8 11.3 0.00 0.00 0.00 82 1015.6
20260506030613 13 263 4.8 9.7 0.00 0.00 0.00 81 1015.6
20260506030043 14 247 3.2 9.7 0.00 0.00 0.00 81 1015.7
20260506025548 14 298 3.2 12.9 0.00 0.00 0.00 81 1015.6
20260506025038 14 252 6.4 12.9 0.00 0.00 0.00 80 1015.5
20260506024538 14 300 6.4 12.9 0.00 0.00 0.00 80 1015.5
20260506024042 15 302 8.0 14.5 0.00 0.00 0.00 80 1015.5
20260506023524 15 276 8.0 16.1 0.00 0.00 0.00 80 1015.5
20260506023034 15 269 11.3 16.1 0.00 0.00 0.00 79 1015.5
20260506022530 15 280 8.0 12.9 0.00 0.00 0.00 79 1015.5
20260506022033 15 276 6.4 12.9 0.00 0.00 0.00 79 1015.5
20260506021538 15 237 8.0 14.5 0.00 0.00 0.00 80 1015.5
20260506021044 15 281 9.7 14.5 0.00 0.00 0.00 79 1015.5
20260506020535 15 272 6.4 11.3 0.00 0.00 0.00 79 1015.5
20260506020046 16 310 4.8 12.9 0.00 0.00 0.00 79 1015.5
20260506015529 16 251 6.4 12.9 0.00 0.00 0.00 79 1015.5
20260506015030 16 300 4.8 11.3 0.00 0.00 0.00 79 1015.5
20260506014525 16 301 4.8 14.5 0.00 0.00 0.00 79 1015.6
20260506014029 16 297 8.0 14.5 0.00 0.00 0.00 79 1015.6
20260506013531 16 288 9.7 16.1 0.00 0.00 0.00 79 1015.6